Location: Barruelo
(41.2448°N, 3.8231°W)
Time: 22:46:17
(UTC+00:00)

SPOT 1/Viking Rocket - Pass Details

Date: 11 December 2025
Orbit: 772 x 790 km, 98.2° (Epoch: 14 January)

Event Time Altitude Azimuth Distance (km) Brightness Sun altitude
Rises 17:33:15 0° 136° (SE) 3,273 6.6 -8.7°
Reaches altitude 10° 17:35:49 10° 126° (SE) 2,349 5.7 -9.2°
Maximum altitude 17:40:15 29° 67° (ENE) 1,409 4.3 -9.9°
Drops below altitude 10° 17:44:42 10° 8° (N) 2,361 5.7 -10.7°
Sets 17:47:16 0° 358° (N) 3,293 6.6 -11.2°
